Torna al catalogo

FENGYUN 1C DEB

AttivoSSO
NORAD 30956·DEBRIS·🇨🇳 China

Lanciato May 10, 1999 da Taiyuan Satellite Launch Center

Loading…

Prossimi Passaggi (prossime 24 ore)

TLE

AggiornatoSource: Space-Track

Epoca: Sep 14, 2026, 13:47 UTC

1 30956U 99025BAW 26257.57472750  .00000830  00000-0  44629-3 0  9996
2 30956  98.7367 291.0149 0048449 274.6441 239.6032 14.15034394  2087

Traccia FENGYUN 1C DEB in tempo reale con AllMySat

Download on the App Store